Year,Month,Day,Hour,Minute,Value (Times are PST for temperature in C)
2012,02,04,00,00,4.80
2012,02,04,00,01,4.80
2012,02,04,00,02,4.80
2012,02,04,00,03,4.80
2012,02,04,00,04,4.80
2012,02,04,00,05,4.80
2012,02,04,00,06,4.80
2012,02,04,00,07,4.70
2012,02,04,00,08,4.70
2012,02,04,00,09,4.70
2012,02,04,00,10,4.60
2012,02,04,00,11,4.60
2012,02,04,00,12,4.60
2012,02,04,00,13,4.60
2012,02,04,00,14,4.50
2012,02,04,00,15,4.50
2012,02,04,00,16,4.50
2012,02,04,00,17,4.40
2012,02,04,00,18,4.40
2012,02,04,00,19,4.40
2012,02,04,00,20,4.40
2012,02,04,00,21,4.30
2012,02,04,00,22,4.30
2012,02,04,00,23,4.20
2012,02,04,00,24,4.20
2012,02,04,00,25,4.20
2012,02,04,00,26,4.00
2012,02,04,00,27,4.00
2012,02,04,00,28,3.90
2012,02,04,00,29,3.80
2012,02,04,00,30,3.90
2012,02,04,00,31,3.80
2012,02,04,00,32,3.80
2012,02,04,00,33,3.80
2012,02,04,00,34,3.80
2012,02,04,00,35,3.70
2012,02,04,00,36,3.60
2012,02,04,00,37,3.60
2012,02,04,00,38,3.60
2012,02,04,00,39,3.60
2012,02,04,00,40,3.50
2012,02,04,00,41,3.40
2012,02,04,00,42,3.40
2012,02,04,00,43,3.40
2012,02,04,00,44,3.40
2012,02,04,00,45,3.30
2012,02,04,00,46,3.30
2012,02,04,00,47,3.30
2012,02,04,00,48,3.30
2012,02,04,00,49,3.30
2012,02,04,00,50,3.30
2012,02,04,00,51,3.30
2012,02,04,00,52,3.30
2012,02,04,00,53,3.20
2012,02,04,00,54,3.20
2012,02,04,00,55,3.10
2012,02,04,00,56,3.10
2012,02,04,00,57,3.10
2012,02,04,00,58,3.20
2012,02,04,00,59,3.10
2012,02,04,01,00,3.10
2012,02,04,01,01,3.10
2012,02,04,01,02,3.10
2012,02,04,01,03,3.10
2012,02,04,01,04,3.10
2012,02,04,01,05,3.10
2012,02,04,01,06,3.10
2012,02,04,01,07,3.10
2012,02,04,01,08,3.10
2012,02,04,01,09,3.10
2012,02,04,01,10,3.10
2012,02,04,01,11,3.10
2012,02,04,01,12,3.10
2012,02,04,01,13,3.10
2012,02,04,01,14,3.10
2012,02,04,01,15,3.10
2012,02,04,01,16,3.10
2012,02,04,01,17,3.10
2012,02,04,01,18,3.00
2012,02,04,01,19,2.90
2012,02,04,01,20,2.90
2012,02,04,01,21,2.90
2012,02,04,01,22,2.90
2012,02,04,01,23,2.90
2012,02,04,01,24,2.90
2012,02,04,01,25,2.90
2012,02,04,01,26,3.00
2012,02,04,01,27,3.10
2012,02,04,01,28,3.10
2012,02,04,01,29,3.10
2012,02,04,01,30,3.10
2012,02,04,01,31,3.10
2012,02,04,01,32,3.00
2012,02,04,01,33,2.90
2012,02,04,01,34,2.90
2012,02,04,01,35,2.90
2012,02,04,01,36,2.90
2012,02,04,01,37,2.90
2012,02,04,01,38,2.90
2012,02,04,01,39,2.90
2012,02,04,01,40,2.90
2012,02,04,01,41,2.90
2012,02,04,01,42,2.90
2012,02,04,01,43,2.90
2012,02,04,01,44,2.90
2012,02,04,01,45,2.80
2012,02,04,01,46,2.80
2012,02,04,01,47,2.70
2012,02,04,01,48,2.70
2012,02,04,01,49,2.70
2012,02,04,01,50,2.70
2012,02,04,01,51,2.80
2012,02,04,01,52,2.80
2012,02,04,01,53,2.80
2012,02,04,01,54,2.70
2012,02,04,01,55,2.70
2012,02,04,01,56,2.70
2012,02,04,01,57,2.70
2012,02,04,01,58,2.70
2012,02,04,01,59,2.60
2012,02,04,02,00,2.60
2012,02,04,02,01,2.60
2012,02,04,02,02,2.60
2012,02,04,02,03,2.60
2012,02,04,02,04,2.70
2012,02,04,02,05,2.60
2012,02,04,02,06,2.60
2012,02,04,02,07,2.60
2012,02,04,02,08,2.60
2012,02,04,02,09,2.60
2012,02,04,02,10,2.60
2012,02,04,02,11,2.60
2012,02,04,02,12,2.60
2012,02,04,02,13,2.60
2012,02,04,02,14,2.70
2012,02,04,02,15,2.70
2012,02,04,02,16,2.70
2012,02,04,02,17,2.70
2012,02,04,02,18,2.70
2012,02,04,02,19,2.70
2012,02,04,02,20,2.70
2012,02,04,02,21,2.70
2012,02,04,02,22,2.70
2012,02,04,02,23,2.80
2012,02,04,02,24,2.80
2012,02,04,02,25,2.90
2012,02,04,02,26,2.90
2012,02,04,02,27,2.90
2012,02,04,02,28,2.90
2012,02,04,02,29,2.90
2012,02,04,02,30,2.90
2012,02,04,02,31,2.90
2012,02,04,02,32,2.90
2012,02,04,02,33,3.10
2012,02,04,02,34,3.10
2012,02,04,02,35,3.10
2012,02,04,02,36,3.00
2012,02,04,02,37,2.90
2012,02,04,02,38,2.90
2012,02,04,02,39,2.90
2012,02,04,02,40,3.10
2012,02,04,02,41,3.10
2012,02,04,02,42,3.00
2012,02,04,02,43,2.90
2012,02,04,02,44,2.90
2012,02,04,02,45,2.90
2012,02,04,02,46,2.90
2012,02,04,02,47,2.90
2012,02,04,02,48,2.80
2012,02,04,02,49,2.70
2012,02,04,02,50,2.70
2012,02,04,02,51,2.70
2012,02,04,02,52,2.70
2012,02,04,02,53,2.70
2012,02,04,02,54,2.70
2012,02,04,02,55,2.70
2012,02,04,02,56,2.60
2012,02,04,02,57,2.50
2012,02,04,02,58,2.50
2012,02,04,02,59,2.40
2012,02,04,03,00,2.40
2012,02,04,03,01,2.40
2012,02,04,03,02,2.40
2012,02,04,03,03,2.40
2012,02,04,03,04,2.30
2012,02,04,03,05,2.20
2012,02,04,03,06,2.20
2012,02,04,03,07,2.30
2012,02,04,03,08,2.30
2012,02,04,03,09,2.30
2012,02,04,03,10,2.20
2012,02,04,03,11,2.20
2012,02,04,03,12,2.20
2012,02,04,03,13,2.20
2012,02,04,03,14,2.20
2012,02,04,03,15,2.20
2012,02,04,03,16,2.20
2012,02,04,03,17,2.20
2012,02,04,03,18,2.20
2012,02,04,03,19,2.20
2012,02,04,03,20,2.20
2012,02,04,03,21,2.20
2012,02,04,03,22,2.10
2012,02,04,03,23,2.10
2012,02,04,03,24,2.10
2012,02,04,03,25,2.10
2012,02,04,03,26,2.00
2012,02,04,03,27,2.00
2012,02,04,03,28,2.00
2012,02,04,03,29,2.00
2012,02,04,03,30,2.00
2012,02,04,03,31,2.00
2012,02,04,03,32,1.90
2012,02,04,03,33,1.90
2012,02,04,03,34,1.90
2012,02,04,03,35,1.90
2012,02,04,03,36,1.90
2012,02,04,03,37,1.80
2012,02,04,03,38,1.80
2012,02,04,03,39,1.80
2012,02,04,03,40,1.80
2012,02,04,03,41,1.80
2012,02,04,03,42,1.70
2012,02,04,03,43,1.70
2012,02,04,03,44,1.70
2012,02,04,03,45,1.70
2012,02,04,03,46,1.70
2012,02,04,03,47,1.70
2012,02,04,03,48,1.70
2012,02,04,03,49,1.60
2012,02,04,03,50,1.60
2012,02,04,03,51,1.60
2012,02,04,03,52,1.60
2012,02,04,03,53,1.60
2012,02,04,03,54,1.60
2012,02,04,03,55,1.50
2012,02,04,03,56,1.60
2012,02,04,03,57,1.60
2012,02,04,03,58,1.70
2012,02,04,03,59,1.70
2012,02,04,04,00,1.70
2012,02,04,04,01,1.70
2012,02,04,04,02,1.80
2012,02,04,04,03,1.80
2012,02,04,04,04,1.90
2012,02,04,04,05,2.00
2012,02,04,04,06,2.00
2012,02,04,04,07,2.10
2012,02,04,04,08,2.10
2012,02,04,04,09,2.10
2012,02,04,04,10,2.10
2012,02,04,04,11,2.10
2012,02,04,04,12,2.10
2012,02,04,04,13,2.10
2012,02,04,04,14,2.10
2012,02,04,04,15,2.20
2012,02,04,04,16,2.20
2012,02,04,04,17,2.20
2012,02,04,04,18,2.20
2012,02,04,04,19,2.20
2012,02,04,04,20,2.30
2012,02,04,04,21,2.40
2012,02,04,04,22,2.50
2012,02,04,04,23,2.60
2012,02,04,04,24,2.70
2012,02,04,04,25,2.60
2012,02,04,04,26,2.60
2012,02,04,04,27,2.60
2012,02,04,04,28,2.60
2012,02,04,04,29,2.60
2012,02,04,04,30,2.70
2012,02,04,04,31,2.70
2012,02,04,04,32,2.70
2012,02,04,04,33,2.70
2012,02,04,04,34,2.70
2012,02,04,04,35,2.70
2012,02,04,04,36,2.70
2012,02,04,04,37,2.70
2012,02,04,04,38,2.80
2012,02,04,04,39,2.80
2012,02,04,04,40,2.70
2012,02,04,04,41,2.70
2012,02,04,04,42,2.80
2012,02,04,04,43,2.80
2012,02,04,04,44,2.90
2012,02,04,04,45,2.90
2012,02,04,04,46,2.90
2012,02,04,04,47,2.90
2012,02,04,04,48,2.90
2012,02,04,04,49,2.80
2012,02,04,04,50,2.70
2012,02,04,04,51,2.60
2012,02,04,04,52,2.50
2012,02,04,04,53,2.40
2012,02,04,04,54,2.40
2012,02,04,04,55,2.30
2012,02,04,04,56,2.20
2012,02,04,04,57,2.20
2012,02,04,04,58,2.20
2012,02,04,04,59,2.20
2012,02,04,05,00,2.20
2012,02,04,05,01,2.20
2012,02,04,05,02,2.20
2012,02,04,05,03,2.30
2012,02,04,05,04,2.40
2012,02,04,05,05,2.40
2012,02,04,05,06,2.50
2012,02,04,05,07,2.50
2012,02,04,05,08,2.60
2012,02,04,05,09,2.70
2012,02,04,05,10,2.70
2012,02,04,05,11,2.70
2012,02,04,05,12,2.80
2012,02,04,05,13,2.80
2012,02,04,05,14,2.80
2012,02,04,05,15,2.90
2012,02,04,05,16,2.90
2012,02,04,05,17,2.80
2012,02,04,05,18,2.80
2012,02,04,05,19,2.70
2012,02,04,05,20,2.70
2012,02,04,05,21,2.70
2012,02,04,05,22,2.70
2012,02,04,05,23,2.80
2012,02,04,05,24,2.80
2012,02,04,05,25,2.80
2012,02,04,05,26,2.90
2012,02,04,05,27,2.90
2012,02,04,05,28,2.90
2012,02,04,05,29,2.90
2012,02,04,05,30,2.90
2012,02,04,05,31,2.90
2012,02,04,05,32,2.90
2012,02,04,05,33,3.10
2012,02,04,05,34,3.10
2012,02,04,05,35,3.10
2012,02,04,05,36,3.10
2012,02,04,05,37,3.10
2012,02,04,05,38,3.10
2012,02,04,05,39,3.10
2012,02,04,05,40,3.10
2012,02,04,05,41,3.10
2012,02,04,05,42,3.10
2012,02,04,05,43,3.20
2012,02,04,05,44,3.20
2012,02,04,05,45,3.30
2012,02,04,05,46,3.40
2012,02,04,05,47,3.50
2012,02,04,05,48,3.50
2012,02,04,05,49,3.50
2012,02,04,05,50,3.60
2012,02,04,05,51,3.60
2012,02,04,05,52,3.70
2012,02,04,05,53,3.70
2012,02,04,05,54,3.70
2012,02,04,05,55,3.70
2012,02,04,05,56,3.70
2012,02,04,05,57,3.70
2012,02,04,05,58,3.70
2012,02,04,05,59,3.70
2012,02,04,06,00,3.70
2012,02,04,06,01,3.80
2012,02,04,06,02,3.80
2012,02,04,06,03,3.80
2012,02,04,06,04,3.80
2012,02,04,06,05,3.80
2012,02,04,06,06,3.80
2012,02,04,06,07,3.80
2012,02,04,06,08,3.80
2012,02,04,06,09,3.80
2012,02,04,06,10,3.80
2012,02,04,06,11,3.80
2012,02,04,06,12,3.80
2012,02,04,06,13,3.80
2012,02,04,06,14,3.80
2012,02,04,06,15,3.80
2012,02,04,06,16,3.80
2012,02,04,06,17,3.80
2012,02,04,06,18,3.80
2012,02,04,06,19,3.80
2012,02,04,06,20,3.80
2012,02,04,06,21,3.80
2012,02,04,06,22,3.90
2012,02,04,06,23,3.90
2012,02,04,06,24,3.90
2012,02,04,06,25,3.90
2012,02,04,06,26,3.90
2012,02,04,06,27,3.90
2012,02,04,06,28,4.00
2012,02,04,06,29,4.00
2012,02,04,06,30,4.00
2012,02,04,06,31,4.00
2012,02,04,06,32,4.10
2012,02,04,06,33,4.10
2012,02,04,06,34,4.20
2012,02,04,06,35,4.20
2012,02,04,06,36,4.20
2012,02,04,06,37,4.20
2012,02,04,06,38,4.20
2012,02,04,06,39,4.20
2012,02,04,06,40,4.20
2012,02,04,06,41,4.20
2012,02,04,06,42,4.30
2012,02,04,06,43,4.30
2012,02,04,06,44,4.30
2012,02,04,06,45,4.40
2012,02,04,06,46,4.40
2012,02,04,06,47,4.40
2012,02,04,06,48,4.30
2012,02,04,06,49,4.20
2012,02,04,06,50,4.20
2012,02,04,06,51,4.20
2012,02,04,06,52,4.20
2012,02,04,06,53,4.20
2012,02,04,06,54,4.20
2012,02,04,06,55,4.10
2012,02,04,06,56,4.10
2012,02,04,06,57,4.00
2012,02,04,06,58,4.00
2012,02,04,06,59,4.00
2012,02,04,07,00,3.90
2012,02,04,07,01,3.80
2012,02,04,07,02,3.80
2012,02,04,07,03,3.80
2012,02,04,07,04,3.80
2012,02,04,07,05,3.90
2012,02,04,07,06,3.90
2012,02,04,07,07,3.90
2012,02,04,07,08,3.90
2012,02,04,07,09,4.00
2012,02,04,07,10,4.00
2012,02,04,07,11,4.00
2012,02,04,07,12,3.90
2012,02,04,07,13,3.90
2012,02,04,07,14,4.00
2012,02,04,07,15,4.10
2012,02,04,07,16,4.30
2012,02,04,07,17,4.30
2012,02,04,07,18,4.40
2012,02,04,07,19,4.30
2012,02,04,07,20,4.20
2012,02,04,07,21,4.20
2012,02,04,07,22,4.10
2012,02,04,07,23,4.00
2012,02,04,07,24,4.00
2012,02,04,07,25,3.90
2012,02,04,07,26,3.90
2012,02,04,07,27,3.80
2012,02,04,07,28,3.80
2012,02,04,07,29,3.90
2012,02,04,07,30,3.90
2012,02,04,07,31,3.90
2012,02,04,07,32,4.00
2012,02,04,07,33,4.00
2012,02,04,07,34,4.10
2012,02,04,07,35,4.10
2012,02,04,07,36,4.10
2012,02,04,07,37,4.20
2012,02,04,07,38,4.20
2012,02,04,07,39,4.20
2012,02,04,07,40,4.30
2012,02,04,07,41,4.40
2012,02,04,07,42,4.40
2012,02,04,07,43,4.40
2012,02,04,07,44,4.50
2012,02,04,07,45,4.50
2012,02,04,07,46,4.50
2012,02,04,07,47,4.60
2012,02,04,07,48,4.60
2012,02,04,07,49,4.70
2012,02,04,07,50,4.70
2012,02,04,07,51,4.70
2012,02,04,07,52,4.80
2012,02,04,07,53,4.80
2012,02,04,07,54,4.80
2012,02,04,07,55,4.80
2012,02,04,07,56,4.90
2012,02,04,07,57,4.90
2012,02,04,07,58,4.90
2012,02,04,07,59,4.90
2012,02,04,08,00,4.90
2012,02,04,08,01,4.80
2012,02,04,08,02,4.80
2012,02,04,08,03,4.80
2012,02,04,08,04,4.70
2012,02,04,08,05,4.70
2012,02,04,08,06,4.60
2012,02,04,08,07,4.60
2012,02,04,08,08,4.60
2012,02,04,08,09,4.60
2012,02,04,08,10,4.60
2012,02,04,08,11,4.60
2012,02,04,08,12,4.60
2012,02,04,08,13,4.60
2012,02,04,08,14,4.60
2012,02,04,08,15,4.70
2012,02,04,08,16,4.70
2012,02,04,08,17,4.80
2012,02,04,08,18,4.90
2012,02,04,08,19,4.90
2012,02,04,08,20,4.90
2012,02,04,08,21,4.90
2012,02,04,08,22,4.90
2012,02,04,08,23,4.90
2012,02,04,08,24,4.90
2012,02,04,08,25,4.90
2012,02,04,08,26,4.90
2012,02,04,08,27,5.00
2012,02,04,08,28,5.10
2012,02,04,08,29,5.10
2012,02,04,08,30,5.10
2012,02,04,08,31,5.10
2012,02,04,08,32,5.10
2012,02,04,08,33,5.10
2012,02,04,08,34,5.20
2012,02,04,08,35,5.30
2012,02,04,08,36,5.30
2012,02,04,08,37,5.30
2012,02,04,08,38,5.40
2012,02,04,08,39,5.40
2012,02,04,08,40,5.40
2012,02,04,08,41,5.50
2012,02,04,08,42,5.50
2012,02,04,08,43,5.60
2012,02,04,08,44,5.60
2012,02,04,08,45,5.70
2012,02,04,08,46,5.80
2012,02,04,08,47,5.80
2012,02,04,08,48,5.90
2012,02,04,08,49,5.90
2012,02,04,08,50,6.00
2012,02,04,08,51,6.10
2012,02,04,08,52,6.20
2012,02,04,08,53,6.20
2012,02,04,08,54,6.30
2012,02,04,08,55,6.40
2012,02,04,08,56,6.50
2012,02,04,08,57,6.60
2012,02,04,08,58,6.60
2012,02,04,08,59,6.60
2012,02,04,09,00,6.60
2012,02,04,09,01,6.60
2012,02,04,09,02,6.60
2012,02,04,09,03,6.60
2012,02,04,09,04,6.60
2012,02,04,09,05,6.60
2012,02,04,09,06,6.60
2012,02,04,09,07,6.60
2012,02,04,09,08,6.60
2012,02,04,09,09,6.60
2012,02,04,09,10,6.60
2012,02,04,09,11,6.60
2012,02,04,09,12,6.60
2012,02,04,09,13,6.60
2012,02,04,09,14,6.60
2012,02,04,09,15,6.60
2012,02,04,09,16,6.60
2012,02,04,09,17,6.60
2012,02,04,09,18,6.60
2012,02,04,09,19,6.60
2012,02,04,09,20,6.60
2012,02,04,09,21,6.50
2012,02,04,09,22,6.40
2012,02,04,09,23,6.40
2012,02,04,09,24,6.40
2012,02,04,09,25,6.60
2012,02,04,09,26,6.60
2012,02,04,09,27,6.70
2012,02,04,09,28,6.80
2012,02,04,09,29,6.80
2012,02,04,09,30,6.80
2012,02,04,09,31,6.90
2012,02,04,09,32,7.00
2012,02,04,09,33,7.10
2012,02,04,09,34,7.10
2012,02,04,09,35,7.30
2012,02,04,09,36,7.30
2012,02,04,09,37,7.40
2012,02,04,09,38,7.50
2012,02,04,09,39,7.70
2012,02,04,09,40,7.80
2012,02,04,09,41,7.80
2012,02,04,09,42,7.70
2012,02,04,09,43,7.70
2012,02,04,09,44,7.70
2012,02,04,09,45,7.70
2012,02,04,09,46,7.80
2012,02,04,09,47,7.80
2012,02,04,09,48,7.90
2012,02,04,09,49,8.00
2012,02,04,09,50,8.00
2012,02,04,09,51,8.10
2012,02,04,09,52,8.20
2012,02,04,09,53,8.40
2012,02,04,09,54,8.60
2012,02,04,09,55,8.70
2012,02,04,09,56,8.80
2012,02,04,09,57,8.90
2012,02,04,09,58,9.00
2012,02,04,09,59,9.00
2012,02,04,10,00,9.00
2012,02,04,10,01,9.00
2012,02,04,10,02,9.00
2012,02,04,10,03,9.00
2012,02,04,10,04,9.10
2012,02,04,10,05,9.20
2012,02,04,10,06,9.20
2012,02,04,10,07,9.20
2012,02,04,10,08,9.30
2012,02,04,10,09,9.40
2012,02,04,10,10,9.40
2012,02,04,10,11,9.40
2012,02,04,10,12,9.40
2012,02,04,10,13,9.40
2012,02,04,10,14,9.50
2012,02,04,10,15,9.50
2012,02,04,10,16,9.50
2012,02,04,10,17,9.60
2012,02,04,10,18,9.60
2012,02,04,10,19,9.70
2012,02,04,10,20,9.70
2012,02,04,10,21,9.70
2012,02,04,10,22,9.80
2012,02,04,10,23,9.80
2012,02,04,10,24,9.90
2012,02,04,10,25,9.90
2012,02,04,10,26,9.90
2012,02,04,10,27,9.90
2012,02,04,10,28,9.90
2012,02,04,10,29,9.90
2012,02,04,10,30,9.90
2012,02,04,10,31,9.90
2012,02,04,10,32,9.90
2012,02,04,10,33,9.90
2012,02,04,10,34,9.90
2012,02,04,10,35,9.90
2012,02,04,10,36,10.10
2012,02,04,10,37,10.10
2012,02,04,10,38,10.10
2012,02,04,10,39,10.10
2012,02,04,10,40,10.10
2012,02,04,10,41,10.10
2012,02,04,10,42,10.20
2012,02,04,10,43,10.20
2012,02,04,10,44,10.30
2012,02,04,10,45,10.30
2012,02,04,10,46,10.40
2012,02,04,10,47,10.40
2012,02,04,10,48,10.40
2012,02,04,10,49,10.40
2012,02,04,10,50,10.40
2012,02,04,10,51,10.40
2012,02,04,10,52,10.40
2012,02,04,10,53,10.50
2012,02,04,10,54,10.60
2012,02,04,10,55,10.60
2012,02,04,10,56,10.60
2012,02,04,10,57,10.60
2012,02,04,10,58,10.60
2012,02,04,10,59,10.60
2012,02,04,11,00,10.60
2012,02,04,11,01,10.60
2012,02,04,11,02,10.60
2012,02,04,11,03,10.60
2012,02,04,11,04,10.60
2012,02,04,11,05,10.60
2012,02,04,11,06,10.60
2012,02,04,11,07,10.60
2012,02,04,11,08,10.60
2012,02,04,11,09,10.70
2012,02,04,11,10,10.70
2012,02,04,11,11,10.70
2012,02,04,11,12,10.80
2012,02,04,11,13,10.90
2012,02,04,11,14,10.90
2012,02,04,11,15,10.90
2012,02,04,11,16,10.90
2012,02,04,11,17,10.90
2012,02,04,11,18,10.90
2012,02,04,11,19,10.90
2012,02,04,11,20,10.90
2012,02,04,11,21,10.90
2012,02,04,11,22,10.90
2012,02,04,11,23,10.90
2012,02,04,11,24,10.90
2012,02,04,11,25,11.00
2012,02,04,11,26,11.10
2012,02,04,11,27,11.10
2012,02,04,11,28,11.10
2012,02,04,11,29,11.10
2012,02,04,11,30,11.10
2012,02,04,11,31,11.10
2012,02,04,11,32,11.10
2012,02,04,11,33,11.10
2012,02,04,11,34,11.10
2012,02,04,11,35,11.10
2012,02,04,11,36,11.10
2012,02,04,11,37,11.10
2012,02,04,11,38,11.10
2012,02,04,11,39,11.10
2012,02,04,11,40,11.10
2012,02,04,11,41,11.10
2012,02,04,11,42,11.20
2012,02,04,11,43,11.30
2012,02,04,11,44,11.30
2012,02,04,11,45,11.30
2012,02,04,11,46,11.30
2012,02,04,11,47,11.20
2012,02,04,11,48,11.20
2012,02,04,11,49,11.10
2012,02,04,11,50,11.10
2012,02,04,11,51,11.10
2012,02,04,11,52,11.10
2012,02,04,11,53,11.20
2012,02,04,11,54,11.20
2012,02,04,11,55,11.20
2012,02,04,11,56,11.20
2012,02,04,11,57,11.20
2012,02,04,11,58,11.20
2012,02,04,11,59,11.20
2012,02,04,12,00,11.20
2012,02,04,12,01,11.20
2012,02,04,12,02,11.30
2012,02,04,12,03,11.30
2012,02,04,12,04,11.30
2012,02,04,12,05,11.30
2012,02,04,12,06,11.40
2012,02,04,12,07,11.40
2012,02,04,12,08,11.40
2012,02,04,12,09,11.40
2012,02,04,12,10,11.50
2012,02,04,12,11,11.60
2012,02,04,12,12,11.60
2012,02,04,12,13,11.70
2012,02,04,12,14,11.70
2012,02,04,12,15,11.70
2012,02,04,12,16,11.80
2012,02,04,12,17,11.80
2012,02,04,12,18,11.80
2012,02,04,12,19,11.80
2012,02,04,12,20,11.80
2012,02,04,12,21,11.80
2012,02,04,12,22,11.80
2012,02,04,12,23,11.90
2012,02,04,12,24,11.90
2012,02,04,12,25,11.90
2012,02,04,12,26,11.90
2012,02,04,12,27,11.80
2012,02,04,12,28,11.90
2012,02,04,12,29,11.90
2012,02,04,12,30,11.90
2012,02,04,12,31,11.90
2012,02,04,12,32,11.90
2012,02,04,12,33,11.90
2012,02,04,12,34,11.90
2012,02,04,12,35,11.90
2012,02,04,12,36,11.80
2012,02,04,12,37,11.90
2012,02,04,12,38,11.90
2012,02,04,12,39,11.90
2012,02,04,12,40,11.90
2012,02,04,12,41,11.90
2012,02,04,12,42,12.00
2012,02,04,12,43,12.00
2012,02,04,12,44,12.00
2012,02,04,12,45,12.00
2012,02,04,12,46,12.00
2012,02,04,12,47,12.00
2012,02,04,12,48,12.00
2012,02,04,12,49,12.00
2012,02,04,12,50,12.00
2012,02,04,12,51,12.00
2012,02,04,12,52,12.00
